• Join FlightAware (Why Join?)
  • Login
  • US Flag GB Flag 
17:33 EST


 

Airport Tracker/Info


-or-


 

Live Flight TrackerFlight Track Log ✈ N111KC ✈ 09-Jul-2014 ✈ KORL - KTOC

Flight Track Log - Related Links

Times and Time Zones

All times are in EDT time to prevent confusion due to time zone crossing. See the N111KC flight status page for this flight to view local times or setup timezone preferences in your user account.

Time Position Orientation Groundspeed Altitude Reporting Facility
EDT Latitude Longitude Course Direction KTS MPH feet Rate Location/Type
13:00 28.5500 -81.3167 90° East 109 125 600  Level Orlando TRACON
13:00 28.5500 -81.3000 90° East 116 133 1,000 615 Climbing Orlando TRACON
13:01 28.5833 -81.2667 41° Northeast 175 201 1,400 950 Climbing Orlando TRACON
13:02 28.6167 -81.2333 41° Northeast 163 188 2,900 1,200 Climbing Orlando TRACON
13:03 28.6667 -81.2167 16° North 166 191 3,800 761 Climbing Orlando TRACON
13:04 28.7297 -81.2306 349° North 195 224 4,600 1,083 Climbing Jacksonville Center
13:05 28.7714 -81.2297 North 158 182 6,200 1,400 Climbing Jacksonville Center
13:06 28.8156 -81.2386 350° North 160 184 7,400 1,289 Climbing Jacksonville Center
13:07 28.8556 -81.2664 329° Northwest 154 177 8,800 1,200 Climbing Jacksonville Center
13:08 28.8914 -81.2942 326° Northwest 164 189 9,800 1,059 Climbing Jacksonville Center
13:09 28.9272 -81.3222 326° Northwest 169 194 10,900 1,000 Climbing Jacksonville Center
13:10 28.9753 -81.3286 353° North 202 232 11,800 550 Climbing Jacksonville Center
13:11 29.0336 -81.3275 North 194 223 12,000 300 Climbing Jacksonville Center
13:12 29.0903 -81.3553 337° Northwest 215 247 12,400 744 Climbing Jacksonville Center
13:13 29.1408 -81.3853 333° Northwest 199 229 13,500 1,059 Climbing Jacksonville Center
13:14 29.1869 -81.4108 334° Northwest 193 222 14,500 1,008 Climbing Jacksonville Center
13:15 29.2311 -81.4292 340° North 181 208 15,500 950 Climbing Jacksonville Center
13:16 29.2814 -81.4475 342° North 181 208 16,400 900 Climbing Jacksonville Center
13:17 29.3294 -81.4633 344° North 181 208 17,300 744 Climbing Jacksonville Center
13:18 29.3756 -81.4819 341° North 176 203 17,900 595 Climbing Jacksonville Center
13:19 29.4219 -81.5072 335° Northwest 176 203 18,500 750 Climbing Jacksonville Center
13:20 29.4681 -81.5306 336° Northwest 176 203 19,400 800 Climbing Jacksonville Center
13:21 29.5142 -81.5539 336° Northwest 176 203 20,100 650 Climbing Jacksonville Center
13:22 29.5625 -81.5747 339° North 176 203 20,700 450 Climbing Jacksonville Center
13:23 29.6086 -81.5978 337° Northwest 176 203 21,000 150 Climbing Jacksonville Center
13:24 29.6631 -81.6233 338° Northwest 193 222 21,000  Level Jacksonville Center
13:25 29.7178 -81.6514 336° Northwest 204 235 21,000 -50 Level Jacksonville Center
13:26 29.7742 -81.6769 339° North 210 242 20,900 -50 Descending Jacksonville Center
13:27 29.8308 -81.7050 337° Northwest 215 247 20,900 50 Level Jacksonville Center
13:28 29.8875 -81.7331 337° Northwest 215 247 21,000 50 Climbing Jacksonville Center
13:29 29.9442 -81.7611 337° Northwest 215 247 21,000 -50 Level Jacksonville Center
13:30 30.0008 -81.7892 337° Northwest 215 247 20,900 -50 Descending Jacksonville Center
13:31 30.0572 -81.8150 338° Northwest 215 247 20,900  Level Jacksonville Center
13:32 30.1139 -81.8408 338° Northwest 215 247 20,900  Level Jacksonville Center
13:33 30.1683 -81.8692 336° Northwest 215 247 20,900 50 Level Jacksonville Center
13:34 30.2272 -81.8972 338° Northwest 215 247 21,000 50 Climbing Jacksonville Center
13:35 30.2878 -81.9158 345° North 215 247 21,000  Level Jacksonville Center
13:36 30.3506 -81.9344 346° North 215 247 21,000 -50 Level Jacksonville Center
13:37 30.4114 -81.9533 345° North 221 254 20,900 -50 Descending Jacksonville Center
13:38 30.4742 -81.9719 346° North 226 260 20,900  Level Jacksonville Center
13:39 30.5369 -81.9906 346° North 226 260 20,900  Level Jacksonville Center
13:40 30.6039 -82.0139 343° North 226 260 20,900  Level Jacksonville Center
13:41 30.6667 -82.0328 345° North 226 260 20,900  Level Jacksonville Center
13:42 30.7314 -82.0539 344° North 226 260 20,900  Level Jacksonville Center
13:43 30.7922 -82.0728 345° North 226 260 20,900 50 Level Jacksonville Center
13:44 30.8550 -82.0917 346° North 226 260 21,000 50 Climbing Jacksonville Center
13:45 30.9175 -82.1103 346° North 226 260 21,000  Level Jacksonville Center
13:46 30.9783 -82.1317 343° North 226 260 21,000  Level Jacksonville Center
13:47 31.0431 -82.1506 346° North 226 260 21,000 -50 Level Jacksonville Center
13:48 31.1039 -82.1719 343° North 226 260 20,900 -50 Descending Jacksonville Center
13:49 31.1667 -82.1908 346° North 226 260 20,900  Level Jacksonville Center
13:50 31.2294 -82.2097 346° North 226 260 20,900 150 Level Jacksonville Center
13:51 31.2900 -82.2289 345° North 226 260 21,200 350 Climbing Jacksonville Center
13:52 31.3464 -82.2503 342° North 221 254 21,600 347 Climbing Jacksonville Center
13:53 31.4008 -82.2669 345° North 202 232 21,900 252 Climbing Jacksonville Center
13:54 31.4594 -82.2836 346° North 202 232 22,100 50 Climbing Jacksonville Center
13:55 31.5178 -82.3003 346° North 207 238 22,000 -50 Descending Jacksonville Center
13:56 31.5806 -82.3194 345° North 213 245 22,000  Level Jacksonville Center
13:57 31.6369 -82.3361 346° North 226 260 22,000  Level Jacksonville Center
13:58 31.6978 -82.3553 345° North 226 260 22,000  Level Jacksonville Center
13:59 31.7606 -82.3744 345° North 226 260 22,000  Level Jacksonville Center
14:00 31.8231 -82.3939 345° North 226 260 22,000  Level Jacksonville Center
14:01 31.8858 -82.4131 345° North 226 260 22,000  Level Jacksonville Center
14:02 31.9486 -82.4347 344° North 226 260 22,000  Level Jacksonville Center
14:03 32.0114 -82.4517 347° North 226 260 22,000 -50 Level Jacksonville Center
14:04 32.0739 -82.4733 344° North 226 260 21,900 -51 Descending Jacksonville Center
14:05 32.1333 -82.4936 344° North 225 259 21,900 51 Level Atlanta Center
14:06 32.1964 -82.5122 346° North 230 265 22,000  Climbing Atlanta Center
14:07 32.2633 -82.5308 347° North 230 265 21,900 -50 Descending Atlanta Center
14:08 32.3242 -82.5542 342° North 225 259 21,900 50 Level Atlanta Center
14:09 32.3869 -82.5728 346° North 225 259 22,000  Climbing Atlanta Center
14:10 32.4456 -82.5942 343° North 225 259 21,900 -50 Descending Atlanta Center
14:11 32.5064 -82.6103 347° North 225 259 21,900  Level Atlanta Center
14:12 32.5692 -82.6314 344° North 225 259 21,900  Level Atlanta Center
14:13 32.6300 -82.6503 345° North 225 259 21,900  Level Atlanta Center
14:14 32.6886 -82.6692 345° North 225 259 21,900  Level Atlanta Center
14:15 32.7494 -82.6928 342° North 225 259 21,900 50 Level Atlanta Center
14:16 32.8103 -82.7092 347° North 225 259 22,000 50 Climbing Atlanta Center
14:17 32.8689 -82.7281 345° North 225 259 22,000  Level Atlanta Center
14:18 32.9297 -82.7494 344° North 225 259 22,000  Level Atlanta Center
14:19 32.9903 -82.7683 345° North 225 259 22,000  Level Atlanta Center
14:20 33.0489 -82.7872 345° North 225 259 22,000  Level Atlanta Center
14:21 33.1097 -82.8064 345° North 225 259 22,000 -300 Level Atlanta Center
14:22 33.1747 -82.8278 345° North 225 259 21,400 -1,050 Descending Atlanta Center
14:23 33.2436 -82.8492 345° North 237 273 19,900 -1,750 Descending Atlanta Center
14:24 33.3169 -82.8706 346° North 249 287 17,900 -1,950 Descending Atlanta Center
14:25 33.3881 -82.8944 344° North 259 298 16,000 -1,800 Descending Atlanta Center
14:26 33.4572 -82.9158 346° North 259 298 14,300 -1,600 Descending Atlanta Center
14:27 33.5200 -82.9375 344° North 253 291 12,800 -1,450 Descending Atlanta Center
14:28 33.5828 -82.9592 344° North 240 276 11,400 -950 Descending Atlanta Center
14:29 33.6414 -82.9808 343° North 224 258 10,900 -250 Descending Atlanta Center
14:30 33.7019 -82.9675 10° North 219 252 10,900 50 Level Atlanta Center
14:31 33.7622 -82.9569 North 219 252 11,000 100 Climbing Atlanta Center
14:32 33.8228 -82.9436 10° North 219 252 11,100 -700 Climbing Atlanta Center
14:33 33.8853 -82.9328 North 219 252 9,600 -1,450 Descending Atlanta Center
14:34 33.9456 -82.9069 20° North 248 285 8,200 -1,350 Descending Atlanta Center
14:35 34.0042 -82.9211 349° North 226 260 6,900 -1,200 Descending Atlanta Center
14:36 34.0606 -82.9356 348° North 209 241 5,800 -550 Descending Atlanta Center
14:37 34.1150 -82.9525 346° North 191 220 5,800 -100 Level Atlanta Center
14:38 34.1633 -82.9719 342° North 184 212 5,600 -350 Descending Atlanta Center
14:39 34.2011 -82.9989 329° Northwest 190 219 5,100 -650 Descending Atlanta Center
14:40 34.2450 -83.0311 325° Northwest 190 219 4,300 -600 Descending Atlanta Center
14:41 34.2558 -83.0455 325° Northwest  Level FlightAware Approximate
14:41 34.2786 -83.0633 322° Northwest 185 213 3,900  Level Atlanta Center
14:42 34.3186 -83.0931 328° Northwest 175 201 3,900 50 Level Atlanta Center
14:43 34.3564 -83.1203 329° Northwest 170 196 4,000 50 Climbing Atlanta Center
14:44 34.3983 -83.1525 328° Northwest 170 196 4,000  Level Atlanta Center
14:45 34.4444 -83.1850 330° Northwest 170 196 4,000  Level Atlanta Center
14:47 34.5022 -83.2259 330° Northwest  Level FlightAware Approximate